Regional Weather Roundup
Issued by NWS

Home | Current Version | Previous Version | Graphics & Text | Print | Product List | Glossary On
Versions: 1 2 3 4 5 6 7 8 9 10 11 12 13 14 15 16 17 18 19 20 21 22 23 24 25 26 27 28 29 30 31 32 33 34 35 36 37 38 39 40 41 42 43 44 45 46 47 48 49 50
792
ASUS45 KCYS 300510
RWRWY

WYOMING REGIONAL WEATHER ROUNDUP
NATIONAL WEATHER SERVICE CHEYENNE WY
1100 PM MDT FRI JUL 29 2016

NOTE:  "FAIR" INDICATES FEW OR NO CLOUDS BELOW 12,000 FEET
WITH NO SIGNIFICANT WEATHER AND/OR OBSTRUCTIONS TO VISIBILITY.

WYZ001-300600-
YELLOWSTONE NATIONAL PARK

CITY           SKY/WX    TMP DP  RH WIND       PRES   REMARKS
LK YELLOWSTONE   N/A     53  40  61 NW3       30.26S
W YELLOWSTONE  NOT AVBL

$$
WYZ002>013-054>058-071-098>099-300600-
NORTHERN WYOMING

CITY           SKY/WX    TMP DP  RH WIND       PRES   REMARKS
JACKSON        FAIR      55  37  50 N7        30.13R
CODY           FAIR      64  52  63 S5        30.08S
GREYBULL       FAIR      75  47  36 W8        29.97S
WORLAND        FAIR      70  46  42 SW3       29.99F
SHERIDAN       FAIR      68  50  52 S6        30.02S
BUFFALO        MOCLDY    66  52  60 SE8       30.08F
GILLETTE       FAIR      69  56  62 S14       30.06R
HULETT         FAIR      64  54  68 S8        30.07F
NEWCASTLE      FAIR      66  52  59 SE8       30.09S

$$
WYZ014>020-022>026-101>103-300600-
CENTRAL WYOMING

CITY           SKY/WX    TMP DP  RH WIND       PRES   REMARKS
BIG PINEY      FAIR      57  30  35 N12       30.19R
PINEDALE       FAIR      55  32  41 W7        30.19S
DUBOIS         FAIR      61  39  44 SW3       30.21S
LANDER         FAIR      70  42  36 W12       30.12R
RIVERTON       FAIR      71  46  40 E7        30.11R
CASPER         FAIR      62  55  77 W7        30.11R
DOUGLAS        FAIR      61  56  83 SE7       30.12R

$$
WYZ021-027>030-104>119-300600-
SOUTHERN WYOMING

CITY           SKY/WX    TMP DP  RH WIND       PRES   REMARKS
EVANSTON       FAIR      72  30  21 W10       30.21S
KEMMERER         N/A    N/A N/A N/A N9        30.22S
FORT BRIDGER   CLEAR     68  28  22 W6        30.22S
ROCK SPRINGS   FAIR      71  36  27 NE9       30.17R
DIXON          FAIR      60  28  28 CALM      30.13S
RAWLINS        FAIR      67  49  52 NE13      30.15S
SARATOGA       FAIR      63  37  39 SE13      30.16R
LARAMIE        FAIR      60  51  72 SE16      30.24R
CHEYENNE       FAIR      62  54  74 S12       30.22R
TORRINGTON     MOCLDY    62  57  83 N6        30.12R
PINE BLUFFS    FAIR      63  55  77 SE13      30.16S

$$




USA.gov is the U.S. government's official web portal to all federal, state and local government web resources and services.